Location: Kershaw
(34.5481°N, 80.5823°W)
Time: 20:15:24
(UTC+00:00)

Vanguard 2 Rocket - Pass Details

Date: 08 October 2022
Orbit: 555 x 3321 km, 32.9° (Epoch: 28 November)

Event Time Altitude Azimuth Distance (km) Brightness Sun altitude
Rises 00:48:42 0° 225° (SW) 7,226 12.0 -23.5°
Reaches altitude 10° 00:53:46 10° 220° (SW) 6,268 11.5 -24.6°
Maximum altitude 01:12:39 51° 152° (SSE) 3,471 9.4 -28.4°
Enters shadow 01:17:25 42° 115° (ESE) 3,487 9.3 -29.3°
